| time (UTC) | temp F | wind direction | speed MPH | gust MPH | rain 1hr in | rain 24hr in | rain mn in | humidity % | barometer mb |
| 20260505224541 | 68 | 215 | 0.0 | 7.0 | 0.00 | 0.15 | 0.00 | 39 | 1005.8 |
| 20260505223039 | 69 | 213 | 1.0 | 7.0 | 0.00 | 0.15 | 0.00 | 39 | 1005.8 |
| 20260505221545 | 70 | 201 | 2.0 | 7.0 | 0.00 | 0.15 | 0.00 | 41 | 1006.1 |
| 20260505220052 | 70 | 200 | 1.0 | 6.0 | 0.00 | 0.15 | 0.00 | 38 | 1006.4 |
| 20260505214533 | 68 | 200 | 0.0 | 5.0 | 0.00 | 0.15 | 0.00 | 42 | 1006.7 |
| 20260505213033 | 67 | 200 | 0.0 | 6.0 | 0.00 | 0.15 | 0.00 | 44 | 1006.8 |
| 20260505211537 | 67 | 232 | 2.0 | 7.0 | 0.00 | 0.15 | 0.00 | 44 | 1006.9 |
| 20260505210028 | 66 | 233 | 2.0 | 6.0 | 0.00 | 0.15 | 0.00 | 49 | 1007.2 |
| 20260505204526 | 66 | 233 | 2.0 | 5.0 | 0.00 | 0.15 | 0.00 | 49 | 1007.3 |
| 20260505203022 | 64 | 244 | 3.0 | 8.0 | 0.00 | 0.15 | 0.00 | 52 | 1007.3 |
| 20260505201520 | 62 | 248 | 0.0 | 7.0 | 0.00 | 0.15 | 0.00 | 51 | 1007.5 |
| 20260505200018 | 63 | 250 | 2.0 | 7.0 | 0.00 | 0.15 | 0.00 | 52 | 1007.7 |
| 20260505194521 | 62 | 248 | 2.0 | 6.0 | 0.00 | 0.15 | 0.00 | 54 | 1007.9 |
| 20260505193015 | 62 | 223 | 0.0 | 8.0 | 0.00 | 0.15 | 0.00 | 59 | 1007.9 |
| 20260505191512 | 61 | 230 | 2.0 | 5.0 | 0.00 | 0.15 | 0.00 | 60 | 1007.8 |
| 20260505190007 | 59 | 233 | 0.0 | 4.0 | 0.00 | 0.15 | 0.00 | 63 | 1007.8 |
| 20260505184503 | 57 | 252 | 0.0 | 4.0 | 0.00 | 0.15 | 0.00 | 69 | 1007.8 |
| 20260505183106 | 56 | 252 | 1.0 | 4.0 | 0.00 | 0.15 | 0.00 | 68 | 1007.8 |
| 20260505181607 | 56 | 270 | 1.0 | 3.0 | 0.00 | 0.15 | 0.00 | 72 | 1007.8 |
| 20260505180055 | 55 | 286 | 0.0 | 5.0 | 0.00 | 0.15 | 0.00 | 76 | 1007.7 |
| 20260505174551 | 53 | 281 | 0.0 | 6.0 | 0.00 | 0.15 | 0.00 | 81 | 1007.7 |
| 20260505173047 | 52 | 43 | 0.0 | 4.0 | 0.00 | 0.15 | 0.00 | 81 | 1007.6 |
| 20260505171545 | 50 | 43 | 0.0 | 4.0 | 0.00 | 0.15 | 0.00 | 83 | 1007.6 |
| 20260505170038 | 49 | 43 | 0.0 | 3.0 | 0.00 | 0.15 | 0.00 | 83 | 1007.6 |
| 20260505164552 | 49 | 43 | 0.0 | 2.0 | 0.00 | 0.15 | 0.00 | 83 | 1007.6 |
| 20260505163036 | 48 | 43 | 0.0 | 4.0 | 0.00 | 0.15 | 0.00 | 83 | 1007.6 |
| 20260505161533 | 47 | 43 | 0.0 | 3.0 | 0.00 | 0.15 | 0.00 | 83 | 1007.3 |
| 20260505153018 | 46 | 43 | 0.0 | 0.0 | 0.00 | 0.15 | 0.00 | 83 | 1006.8 |
| 20260505151516 | 46 | 43 | 0.0 | 0.0 | 0.00 | 0.15 | 0.00 | 80 | 1006.7 |
| 20260505130105 | 44 | 43 | 0.0 | 4.0 | 0.00 | 0.15 | 0.00 | 78 | 1005.2 |
| 20260505124612 | 44 | 43 | 1.0 | 5.0 | 0.00 | 0.15 | 0.00 | 78 | 1005.2 |
| 20260505123101 | 45 | 43 | 0.0 | 1.0 | 0.00 | 0.15 | 0.00 | 77 | 1005.3 |
| 20260505121559 | 45 | 43 | 0.0 | 2.0 | 0.00 | 0.15 | 0.00 | 77 | 1005.3 |
| 20260505120106 | 45 | 43 | 0.0 | 3.0 | 0.00 | 0.15 | 0.00 | 77 | 1005.1 |
| 20260505114557 | 44 | 43 | 0.0 | 0.0 | 0.00 | 0.15 | 0.00 | 77 | 1005.2 |
| 20260505113114 | 44 | 43 | 0.0 | 0.0 | 0.00 | 0.15 | 0.00 | 77 | 1005.1 |
| 20260505111555 | 44 | 43 | 0.0 | 0.0 | 0.00 | 0.15 | 0.00 | 78 | 1005.1 |
| 20260505101552 | 44 | 43 | 0.0 | 1.0 | 0.00 | 0.15 | 0.00 | 78 | 1005.3 |
| 20260505100051 | 44 | 43 | 0.0 | 3.0 | 0.00 | 0.15 | 0.00 | 78 | 1005.4 |
| 20260505094549 | 44 | 43 | 0.0 | 5.0 | 0.00 | 0.15 | 0.00 | 78 | 1005.6 |
| 20260505093054 | 44 | 44 | 1.0 | 4.0 | 0.00 | 0.15 | 0.00 | 79 | 1005.6 |
| 20260505091548 | 43 | 44 | 0.0 | 7.0 | 0.00 | 0.15 | 0.00 | 79 | 1005.5 |
| 20260505090046 | 43 | 89 | 2.0 | 8.0 | 0.00 | 0.15 | 0.00 | 79 | 1005.6 |
| 20260505084551 | 43 | 119 | 0.0 | 0.0 | 0.00 | 0.15 | 0.00 | 81 | 1005.7 |
| 20260505083050 | 43 | 119 | 0.0 | 0.0 | 0.00 | 0.15 | 0.00 | 80 | 1005.9 |
| 20260505081548 | 44 | 119 | 0.0 | 0.0 | 0.00 | 0.15 | 0.00 | 80 | 1006.2 |
| 20260505080041 | 44 | 118 | 0.0 | 4.0 | 0.00 | 0.15 | 0.00 | 79 | 1006.0 |
| 20260505074541 | 44 | 30 | 1.0 | 9.0 | 0.00 | 0.15 | 0.00 | 80 | 1005.8 |
| 20260505073037 | 44 | 355 | 0.0 | 5.0 | 0.00 | 0.15 | 0.00 | 79 | 1006.4 |
| 20260505071535 | 44 | 333 | 0.0 | 3.0 | 0.00 | 0.15 | 0.00 | 79 | 1006.5 |
| 20260505070041 | 44 | 333 | 0.0 | 2.0 | 0.00 | 0.15 | 0.00 | 79 | 1006.0 |
| 20260505064530 | 44 | 333 | 1.0 | 6.0 | 0.00 | 0.15 | 0.15 | 79 | 1005.8 |
| 20260505063033 | 44 | 336 | 2.0 | 7.0 | 0.00 | 0.15 | 0.15 | 78 | 1005.2 |
| 20260505061528 | 44 | 23 | 1.0 | 4.0 | 0.00 | 0.15 | 0.15 | 78 | 1005.2 |
| 20260505060035 | 44 | 24 | 0.0 | 6.0 | 0.00 | 0.15 | 0.15 | 79 | 1004.9 |
| 20260505054527 | 44 | 46 | 0.0 | 3.0 | 0.00 | 0.15 | 0.15 | 78 | 1005.2 |
| 20260505053032 | 45 | 47 | 2.0 | 7.0 | 0.00 | 0.15 | 0.15 | 78 | 1005.2 |
| 20260505051524 | 45 | 40 | 0.0 | 3.0 | 0.00 | 0.15 | 0.15 | 78 | 1005.6 |
| 20260505041520 | 44 | 173 | 1.0 | 4.0 | 0.03 | 0.15 | 0.15 | 79 | 1004.9 |
| 20260505040018 | 44 | 176 | 0.0 | 6.0 | 0.06 | 0.15 | 0.15 | 81 | 1005.1 |
| 20260505034523 | 45 | 176 | 0.0 | 7.0 | 0.09 | 0.15 | 0.15 | 80 | 1004.9 |
| 20260505033017 | 46 | 32 | 0.0 | 7.0 | 0.08 | 0.14 | 0.14 | 77 | 1004.1 |
| 20260505031517 | 46 | 32 | 0.0 | 4.0 | 0.06 | 0.12 | 0.12 | 76 | 1004.9 |
| 20260505030016 | 45 | 32 | 2.0 | 9.0 | 0.03 | 0.09 | 0.09 | 77 | 1004.6 |
| 20260505024515 | 45 | 155 | 0.0 | 3.0 | 0.00 | 0.07 | 0.06 | 81 | 1005.0 |
| 20260505023014 | 44 | 156 | 1.0 | 8.0 | 0.05 | 0.07 | 0.06 | 82 | 1004.0 |
| 20260505021512 | 46 | 158 | 3.0 | 8.0 | 0.05 | 0.07 | 0.06 | 80 | 1003.5 |
| 20260505020013 | 46 | 136 | 2.0 | 10.0 | 0.05 | 0.07 | 0.06 | 78 | 1003.2 |
| 20260505014510 | 47 | 126 | 0.0 | 5.0 | 0.06 | 0.07 | 0.06 | 78 | 1003.6 |
| 20260505013009 | 47 | 44 | 4.0 | 10.0 | 0.01 | 0.02 | 0.01 | 80 | 1004.9 |
| 20260505011507 | 47 | 350 | 4.0 | 11.0 | 0.01 | 0.02 | 0.01 | 80 | 1004.8 |
| 20260505010014 | 49 | 14 | 5.0 | 13.0 | 0.01 | 0.02 | 0.01 | 80 | 1004.4 |
| 20260505004507 | 52 | 323 | 7.0 | 12.0 | 0.00 | 0.01 | 0.00 | 76 | 1004.3 |
| 20260505003006 | 55 | 302 | 2.0 | 10.0 | 0.00 | 0.01 | 0.00 | 68 | 1003.7 |
| 20260505001508 | 56 | 35 | 0.0 | 6.0 | 0.00 | 0.01 | 0.00 | 61 | 1003.0 |
| 20260505000005 | 56 | 38 | 2.0 | 10.0 | 0.00 | 0.01 | 0.00 | 62 | 1002.7 |
| 20260504234506 | 56 | 350 | 5.0 | 14.0 | 0.00 | 0.01 | 0.00 | 63 | 1002.8 |
| 20260504233004 | 59 | 178 | 0.0 | 3.0 | 0.00 | 0.01 | 0.00 | 56 | 1002.8 |
| 20260504231504 | 59 | 146 | 1.0 | 7.0 | 0.00 | 0.01 | 0.00 | 57 | 1002.4 |
| 20260504230002 | 59 | 154 | 4.0 | 12.0 | 0.00 | 0.01 | 0.00 | 57 | 1002.8 |